FW3877 Weather Reports


time (UTC)temp
F
wind
direction
speed
knots
gust
knots
rain 1hr
in
rain 24hr
in
rain mn
in
humidity
%
barometer
mb
20260906221704 55 258 4.3 7.0 0.00 0.03 0.06 93 1011.2
20260906221205 55 246 2.6 5.2 0.00 0.03 0.06 94 1011.2
20260906220204 55 230 2.6 7.0 0.00 0.03 0.06 94 1011.1
20260906215704 55 243 2.6 6.1 0.00 0.03 0.06 94 1011.2
20260906214204 55 219 2.6 6.1 0.00 0.03 0.06 94 1011.2
20260906213704 55 225 2.6 5.2 0.00 0.03 0.06 94 1011.2
20260906212204 55 248 2.6 5.2 0.00 0.03 0.06 94 1011.1
20260906211704 55 246 2.6 6.1 0.00 0.03 0.06 94 1011.1
20260906211204 55 190 1.7 1.7 0.00 0.03 0.06 94 1011.0
20260906210205 55 217 0.9 1.7 0.00 0.03 0.06 94 1010.9
20260906205704 55 217 0.9 1.7 0.00 0.03 0.06 94 1010.9
20260906205204 55 217 0.0 0.0 0.00 0.03 0.06 94 1010.9
20260906204204 56 217 1.7 2.6 0.00 0.03 0.06 94 1010.9
20260906203704 56 224 1.7 4.3 0.00 0.03 0.06 94 1010.9
20260906202704 56 246 2.6 4.3 0.00 0.03 0.06 94 1010.8
20260906202204 56 263 2.6 7.0 0.00 0.03 0.06 94 1010.8
20260906201704 56 267 2.6 7.8 0.00 0.03 0.06 94 1010.8
20260906201204 56 260 2.6 4.3 0.00 0.03 0.06 94 1010.7
20260906200704 56 255 4.3 7.8 0.00 0.03 0.06 94 1010.6
20260906200204 56 256 1.7 6.1 0.00 0.03 0.06 94 1010.5
20260906195704 56 255 0.9 2.6 0.00 0.03 0.06 94 1010.4
20260906195203 56 262 0.0 1.7 0.00 0.03 0.06 94 1010.5
20260906194704 56 262 0.9 2.6 0.00 0.03 0.06 94 1010.4
20260906194204 56 242 0.9 2.6 0.00 0.03 0.06 94 1010.4
20260906193704 57 253 1.7 7.0 0.00 0.03 0.06 94 1010.3
20260906193204 57 271 3.5 8.7 0.00 0.03 0.06 94 1010.3
20260906192704 57 267 7.8 13.0 0.00 0.03 0.06 94 1010.3
20260906192203 57 260 4.3 7.8 0.01 0.03 0.06 94 1010.2
20260906191704 57 265 4.3 7.0 0.01 0.03 0.06 94 1010.1
20260906191203 58 252 4.3 8.7 0.01 0.03 0.06 94 1010.0
20260906190705 58 253 7.0 11.3 0.01 0.03 0.06 94 1009.9
20260906190204 58 264 7.0 10.4 0.01 0.03 0.06 94 1009.8
20260906185204 58 251 5.2 10.4 0.01 0.03 0.06 94 1009.6
20260906184204 58 253 7.8 11.3 0.01 0.03 0.06 93 1009.7
20260906183704 58 268 7.0 12.2 0.01 0.03 0.06 93 1009.6
20260906183204 59 269 6.1 10.4 0.01 0.03 0.06 93 1009.4
20260906182704 59 287 6.1 13.0 0.01 0.03 0.06 92 1009.5
20260906182203 59 260 5.2 11.3 0.00 0.02 0.05 92 1009.4
20260906181704 60 269 6.1 11.3 0.00 0.02 0.05 92 1009.4
20260906181204 60 267 5.2 12.2 0.00 0.02 0.05 92 1009.3
20260906180704 60 274 5.2 8.7 0.00 0.02 0.05 92 1009.3
20260906180204 61 283 3.5 10.4 0.00 0.02 0.05 92 1009.4
20260906175704 61 272 3.5 10.4 0.00 0.02 0.05 92 1009.3
20260906175204 61 266 5.2 8.7 0.00 0.02 0.05 92 1009.3
20260906174703 61 270 4.3 10.4 0.00 0.02 0.05 92 1009.3
20260906174204 61 251 6.1 13.0 0.00 0.02 0.05 92 1009.1
20260906173704 61 273 5.2 8.7 0.00 0.02 0.05 92 1009.2
20260906173203 61 253 5.2 10.4 0.00 0.02 0.05 92 1009.1
20260906172703 61 245 3.5 7.8 0.00 0.02 0.05 92 1009.0
20260906172204 61 242 2.6 7.8 0.00 0.02 0.05 92 1009.0
20260906171704 61 243 6.1 13.0 0.00 0.02 0.05 92 1008.9
20260906171204 62 251 4.3 10.4 0.00 0.02 0.05 92 1008.8
20260906170704 62 250 7.0 14.8 0.00 0.02 0.05 92 1008.8
20260906170204 62 242 7.8 13.0 0.00 0.02 0.05 91 1008.7
20260906165204 63 244 11.3 17.4 0.00 0.02 0.05 91 1008.5
20260906164703 63 241 9.6 15.6 0.00 0.02 0.05 90 1008.4
20260906164204 64 234 7.0 15.6 0.00 0.02 0.05 90 1008.3
20260906163703 64 230 8.7 15.6 0.00 0.02 0.05 90 1008.2
20260906163204 64 240 8.7 15.6 0.00 0.02 0.05 90 1008.2
20260906162704 64 237 7.8 13.9 0.00 0.02 0.05 90 1008.1
20260906162203 64 234 9.6 15.6 0.00 0.02 0.05 89 1008.2
20260906161704 64 249 11.3 19.1 0.00 0.02 0.05 89 1008.1
20260906161205 64 238 10.4 17.4 0.00 0.02 0.05 89 1008.1
20260906160203 64 278 10.4 15.6 0.00 0.02 0.05 89 1008.0
20260906155704 64 240 9.6 17.4 0.00 0.02 0.05 89 1008.0
20260906155204 64 251 9.6 17.4 0.00 0.02 0.05 89 1008.0
20260906154703 64 251 12.2 20.9 0.00 0.02 0.05 89 1008.0
20260906154205 64 245 8.7 15.6 0.00 0.02 0.05 89 1008.0
20260906153704 64 238 11.3 19.1 0.00 0.02 0.05 89 1008.0
20260906153204 65 242 10.4 21.7 0.00 0.02 0.05 89 1007.9
20260906152704 65 238 13.0 20.9 0.00 0.02 0.05 88 1007.8
20260906152203 65 242 13.9 20.0 0.00 0.02 0.05 88 1007.7
20260906151704 65 234 11.3 18.2 0.00 0.02 0.05 88 1007.8
20260906151204 65 245 13.0 21.7 0.00 0.02 0.05 88 1007.7
20260906150704 66 235 13.0 21.7 0.00 0.02 0.05 88 1007.6
20260906145203 65 232 13.0 20.0 0.00 0.02 0.05 90 1007.8
20260906144204 65 231 12.2 20.9 0.02 0.02 0.05 91 1007.8
20260906143704 65 245 12.2 22.6 0.02 0.02 0.05 91 1007.8
20260906143203 66 244 10.4 20.0 0.02 0.02 0.05 91 1007.8
20260906142703 66 237 12.2 20.0 0.02 0.02 0.05 91 1007.6
20260906142204 66 239 11.3 22.6 0.02 0.02 0.05 91 1007.7
20260906141704 66 234 13.0 20.9 0.02 0.02 0.05 92 1007.6
20260906141204 66 250 7.8 18.2 0.02 0.02 0.05 93 1007.5
20260906140704 66 247 11.3 17.4 0.02 0.02 0.05 93 1007.4
20260906135704 66 237 7.8 14.8 0.02 0.02 0.05 93 1007.4
20260906135204 66 241 10.4 21.7 0.02 0.02 0.05 93 1007.4
20260906134704 66 240 7.8 15.6 0.01 0.02 0.04 93 1007.3
20260906134203 66 235 10.4 19.1 0.00 0.01 0.03 93 1007.3
20260906133703 66 220 10.4 17.4 0.00 0.01 0.03 93 1007.1
20260906132704 67 210 11.3 18.2 0.00 0.01 0.03 93 1007.2
20260906132203 66 208 13.9 18.2 0.00 0.01 0.03 93 1007.2
20260906131704 66 200 12.2 19.1 0.00 0.01 0.03 94 1007.2
20260906131204 66 218 11.3 19.1 0.00 0.01 0.03 94 1007.3
20260906130204 65 216 11.3 17.4 0.00 0.01 0.03 94 1007.4
20260906125704 65 226 12.2 20.0 0.00 0.01 0.03 94 1007.2
20260906124704 66 210 11.3 19.1 0.00 0.01 0.03 94 1007.3
20260906124204 66 218 11.3 18.2 0.00 0.01 0.03 95 1007.2
20260906123204 65 224 12.2 22.6 0.01 0.01 0.03 95 1007.2
20260906122704 65 219 13.9 22.6 0.01 0.01 0.03 95 1007.2
20260906122204 65 216 10.4 20.9 0.01 0.01 0.03 95 1007.2
20260906121704 65 213 10.4 18.2 0.01 0.01 0.03 95 1007.0
20260906121203 65 216 12.2 20.0 0.01 0.01 0.03 95 1007.0
20260906120704 65 209 10.4 20.9 0.01 0.01 0.03 95 1007.1
20260906120203 65 206 12.2 18.2 0.01 0.01 0.03 95 1007.2
20260906115703 65 217 6.1 19.1 0.01 0.01 0.03 95 1007.1
20260906114703 64 197 8.7 12.2 0.01 0.01 0.03 94 1007.0
20260906114204 64 190 8.7 13.9 0.01 0.01 0.03 94 1007.1
20260906113704 64 204 8.7 11.3 0.01 0.01 0.03 94 1007.0
20260906113204 64 198 11.3 20.0 0.00 0.00 0.02 94 1007.0
20260906112704 64 200 8.7 18.2 0.00 0.00 0.02 94 1007.0
20260906112203 64 208 11.3 17.4 0.00 0.00 0.02 94 1007.0
20260906111704 64 212 10.4 17.4 0.00 0.00 0.02 94 1007.0
20260906111204 64 213 10.4 17.4 0.00 0.00 0.02 93 1006.9
20260906110704 65 209 9.6 17.4 0.00 0.00 0.02 93 1006.9
20260906110204 65 202 9.6 22.6 0.00 0.00 0.02 93 1007.0
20260906105704 65 197 11.3 22.6 0.00 0.00 0.02 92 1007.0
20260906105204 65 205 12.2 24.3 0.00 0.00 0.02 92 1007.0
20260906104704 65 212 10.4 22.6 0.00 0.00 0.02 92 1007.0
20260906104204 65 206 11.3 21.7 0.00 0.00 0.02 92 1007.0
20260906103204 65 192 11.3 20.0 0.00 0.00 0.02 92 1007.0
20260906102704 65 204 13.9 26.9 0.00 0.00 0.02 91 1007.0
20260906102204 65 191 11.3 20.0 0.00 0.00 0.02 91 1006.8
20260906101704 65 202 11.3 24.3 0.00 0.00 0.02 91 1007.1
20260906101204 65 186 14.8 28.7 0.00 0.00 0.02 91 1007.0
20260906100703 65 196 13.9 20.9 0.00 0.00 0.02 90 1006.8
20260906100204 65 191 12.2 20.9 0.00 0.00 0.02 90 1007.1
20260906095204 66 194 16.5 27.8 0.00 0.00 0.02 89 1007.1
20260906093704 65 200 13.0 28.7 0.00 0.00 0.02 90 1007.4
20260906093204 65 192 13.0 25.2 0.00 0.00 0.02 90 1007.3
20260906092704 65 209 14.8 22.6 0.00 0.00 0.02 91 1007.4
20260906092204 65 205 11.3 22.6 0.00 0.00 0.02 91 1007.5
20260906091704 64 192 12.2 24.3 0.00 0.00 0.02 91 1007.5
20260906091203 64 192 11.3 17.4 0.00 0.00 0.02 91 1007.6
20260906090704 64 193 9.6 18.2 0.00 0.00 0.02 91 1007.6
20260906090204 64 178 13.0 19.1 0.00 0.00 0.02 90 1007.6
20260906085703 65 196 10.4 19.1 0.00 0.00 0.02 89 1007.8
20260906084705 65 175 13.9 25.2 0.00 0.00 0.02 88 1008.0
20260906084205 65 200 10.4 20.9 0.00 0.00 0.02 89 1008.1
20260906083204 65 183 10.4 22.6 0.00 0.00 0.02 89 1007.8
20260906082703 65 172 7.8 18.2 0.00 0.00 0.02 90 1007.8
20260906082204 65 170 9.6 20.9 0.00 0.00 0.02 90 1007.6
20260906081704 65 187 8.7 28.7 0.00 0.00 0.02 90 1007.7
20260906081204 65 178 8.7 22.6 0.00 0.00 0.02 90 1007.7
20260906080703 64 198 11.3 15.6 0.00 0.00 0.02 90 1007.9
20260906080204 64 181 10.4 22.6 0.00 0.00 0.02 91 1008.0
20260906075704 64 191 10.4 22.6 0.00 0.00 0.02 91 1008.0
20260906075204 64 184 12.2 20.9 0.00 0.00 0.02 91 1008.0
20260906074704 64 184 11.3 20.0 0.00 0.00 0.02 91 1008.2
20260906074204 64 191 7.0 18.2 0.00 0.00 0.02 91 1008.3
20260906073203 64 163 10.4 20.0 0.00 0.00 0.02 92 1008.5
20260906072704 64 178 11.3 18.2 0.00 0.00 0.02 92 1008.6
20260906072203 64 180 10.4 17.4 0.00 0.00 0.02 92 1008.7
20260906071703 64 178 10.4 19.1 0.00 0.00 0.02 92 1008.8
20260906071204 63 188 10.4 22.6 0.00 0.00 0.02 92 1008.8
20260906070704 63 179 7.8 15.6 0.00 0.00 0.02 93 1008.9
20260906070203 63 192 10.4 17.4 0.00 0.00 0.02 93 1008.9
20260906065704 63 187 9.6 20.0 0.00 0.00 0.02 93 1009.1
20260906065203 63 203 9.6 17.4 0.00 0.00 0.02 93 1009.2
20260906064704 63 183 8.7 20.9 0.00 0.00 0.02 93 1009.3
20260906064203 63 206 7.8 15.6 0.00 0.00 0.02 93 1009.4
20260906063703 63 203 8.7 15.6 0.00 0.00 0.02 94 1009.4
20260906063203 63 321 11.3 19.1 0.00 0.00 0.02 94 1009.6
20260906062704 63 184 9.6 22.6 0.00 0.00 0.02 94 1009.6
20260906062204 63 191 8.7 20.0 0.00 0.00 0.02 94 1009.7
20260906061704 63 181 8.7 15.6 0.00 0.00 0.02 94 1009.7
20260906060716 64 178 7.8 13.0 0.00 0.00 0.02 93 1009.9
20260906055704 64 210 8.7 19.1 0.00 0.00 0.02 93 1009.9
20260906055204 64 205 10.4 18.2 0.00 0.00 0.02 93 1010.0
20260906054704 64 202 11.3 20.9 0.00 0.00 0.02 92 1010.0
20260906054204 64 195 11.3 22.6 0.00 0.00 0.02 92 1010.2
20260906053703 64 216 10.4 17.4 0.00 0.00 0.02 92 1010.0
20260906051204 64 184 9.6 17.4 0.00 0.00 0.02 92 1010.4
20260906050704 64 199 8.7 13.0 0.00 0.01 0.02 92 1010.5
20260906050204 64 185 9.6 19.1 0.00 0.01 0.02 92 1010.6
20260906045704 64 207 7.0 14.8 0.00 0.01 0.02 92 1010.7
20260906045204 64 201 10.4 17.4 0.00 0.01 0.02 92 1010.7
20260906044704 64 176 6.1 15.6 0.00 0.01 0.02 92 1010.9
20260906044204 65 197 7.8 12.2 0.00 0.01 0.02 92 1010.9
20260906043703 65 167 6.1 17.4 0.00 0.01 0.02 92 1011.1
20260906043204 65 188 8.7 17.4 0.00 0.01 0.02 92 1011.2
20260906042704 64 184 8.7 17.4 0.00 0.01 0.02 92 1011.2
20260906042205 65 186 4.3 10.4 0.00 0.01 0.02 92 1011.3
20260906041704 65 173 5.2 15.6 0.00 0.01 0.02 92 1011.5
20260906041204 64 165 8.7 19.1 0.00 0.01 0.02 92 1011.4
20260906040703 64 183 7.8 17.4 0.00 0.01 0.02 93 1011.5
20260906040204 64 171 7.8 15.6 0.00 0.01 0.02 93 1011.5
20260906035704 64 147 8.7 17.4 0.00 0.01 0.02 93 1011.5
20260906035204 64 165 6.1 18.2 0.00 0.01 0.02 93 1011.7
20260906034704 64 162 11.3 18.2 0.00 0.01 0.02 93 1011.6
20260906034203 64 187 10.4 19.1 0.00 0.01 0.02 93 1011.8
20260906033703 64 164 8.7 14.8 0.00 0.01 0.02 93 1011.9
20260906033204 64 195 9.6 19.1 0.00 0.01 0.02 93 1011.8
20260906032203 64 175 9.6 22.6 0.00 0.01 0.02 93 1011.9
20260906031704 64 193 8.7 17.4 0.00 0.02 0.02 93 1011.9
20260906031204 64 197 8.7 17.4 0.00 0.02 0.02 93 1011.9
20260906030705 64 183 10.4 18.2 0.00 0.02 0.02 93 1011.9
20260906030204 64 197 12.2 22.6 0.00 0.02 0.02 93 1011.8
20260906025703 63 182 8.7 22.6 0.00 0.02 0.02 93 1012.0
20260906024704 63 188 14.8 22.6 0.00 0.02 0.02 93 1012.0
20260906024203 63 192 10.4 18.2 0.00 0.02 0.02 93 1012.2
20260906023204 63 177 11.3 20.0 0.00 0.02 0.02 93 1012.5
20260906022204 63 175 8.7 17.4 0.00 0.02 0.02 93 1012.7
20260906021704 63 195 10.4 18.2 0.00 0.02 0.02 93 1012.8
20260906020704 63 213 10.4 18.2 0.00 0.02 0.02 93 1012.9
20260906015703 63 183 8.7 17.4 0.00 0.02 0.02 93 1013.1
20260906015204 63 175 7.0 19.1 0.00 0.02 0.02 93 1013.1
20260906014203 63 176 8.7 17.4 0.00 0.02 0.02 93 1013.3
20260906013704 63 199 8.7 17.4 0.00 0.02 0.02 93 1013.5
20260906013203 63 167 8.7 17.4 0.00 0.02 0.02 93 1013.4
20260906012704 63 186 8.7 19.1 0.00 0.02 0.02 93 1013.6
20260906012204 63 172 6.1 17.4 0.00 0.02 0.02 93 1013.7
20260906011704 63 199 6.1 20.9 0.00 0.02 0.02 93 1013.8
20260906011203 63 190 9.6 15.6 0.00 0.02 0.02 93 1013.9
20260906010703 63 200 8.7 17.4 0.00 0.02 0.02 93 1014.0
20260906010205 63 203 8.7 18.2 0.00 0.02 0.02 93 1014.1
20260906005704 63 208 7.8 13.0 0.00 0.02 0.02 93 1014.1
20260906005204 63 197 8.7 17.4 0.00 0.02 0.02 93 1014.1
20260906004703 63 196 8.7 17.4 0.00 0.02 0.02 94 1014.2
20260906004203 63 205 7.8 14.8 0.00 0.02 0.02 94 1014.1
20260906003703 63 209 9.6 13.0 0.00 0.02 0.02 94 1014.2
20260906003203 63 192 11.3 15.6 0.00 0.02 0.02 93 1014.3
20260906002704 63 206 7.8 15.6 0.00 0.02 0.02 93 1014.2
20260906002204 62 204 10.4 15.6 0.00 0.02 0.02 93 1014.3
20260906001704 62 211 10.4 17.4 0.00 0.02 0.02 94 1014.2
20260906001204 62 214 9.6 17.4 0.00 0.02 0.02 94 1014.4
20260906000704 62 197 11.3 17.4 0.00 0.02 0.02 94 1014.3
20260906000204 62 207 7.0 17.4 0.00 0.02 0.02 94 1014.4
20260905235704 62 209 7.8 12.2 0.00 0.02 0.02 94 1014.4
20260905235204 62 199 6.1 12.2 0.00 0.02 0.02 94 1014.5
20260905234704 62 202 8.7 14.8 0.00 0.02 0.02 94 1014.5
20260905234203 61 278 5.2 13.0 0.00 0.02 0.02 94 1014.5
20260905233704 61 187 5.2 13.9 0.00 0.02 0.02 94 1014.6
20260905233204 61 182 7.8 13.0 0.00 0.02 0.02 94 1014.6
20260905232704 61 174 5.2 11.3 0.00 0.02 0.02 94 1014.7
20260905232204 61 174 7.0 12.2 0.00 0.02 0.02 94 1014.7
20260905230704 60 172 9.6 13.9 0.00 0.02 0.02 93 1014.9
20260905223704 59 164 7.8 14.8 0.00 0.02 0.02 93 1015.3
20260905223203 59 159 9.6 13.9 0.00 0.02 0.02 93 1015.3